Location: Unspecified
(46.6561°N, 0.0000°E)
Time: 02:22:30
(UTC+00:00)

DX 1 - Visible Passes

Search period start: 04 April 2026 00:00
Search period end: 14 April 2026 00:00
Orbit: 594 x 604 km, 98.4° (Epoch: 29 March)

Date Brightness Start Highest point End Pass type
(mag) Time Alt. Az. Time Alt. Az. Time Alt. Az.
4 Apr ? 02:29:30 10° NNE 02:33:12 35° E 02:33:12 35° E visible
4 Apr ? 04:05:28 10° N 04:08:51 24° WNW 04:09:57 21° W visible
5 Apr ? 02:40:03 10° NNE 02:44:06 45° E 02:44:08 45° ESE visible
5 Apr ? 04:16:24 10° NNW 04:19:25 20° WNW 04:20:52 17° W visible
6 Apr ? 02:50:37 10° NNE 02:54:47 59° ESE 02:55:03 58° ESE visible
6 Apr ? 04:27:25 10° NNW 04:29:58 16° WNW 04:31:47 13° W visible
7 Apr ? 03:01:14 10° NNE 03:05:27 77° ESE 03:05:58 65° SSE visible
7 Apr ? 04:38:35 10° NNW 04:40:29 13° WNW 04:42:23 10° W visible
8 Apr ? 03:11:52 10° NNE 03:16:06 83° WNW 03:16:51 59° SSW visible
8 Apr ? 04:50:21 10° NW 04:50:59 10° WNW 04:51:38 10° WNW visible
9 Apr ? 01:48:40 10° ENE 01:50:39 13° E 01:51:02 13° E visible
9 Apr ? 03:22:32 10° N 03:26:43 65° WNW 03:27:46 46° SW visible
10 Apr ? 01:58:41 10° NE 02:01:24 17° E 02:01:55 16° E visible
10 Apr ? 03:33:14 10° N 03:37:19 50° WNW 03:38:38 35° WSW visible
11 Apr ? 02:08:54 10° NE 02:12:07 21° E 02:12:48 20° ESE visible
11 Apr ? 03:43:58 10° N 03:47:54 39° WNW 03:49:31 27° WSW visible
12 Apr ? 02:19:14 10° NE 02:22:49 26° E 02:23:39 25° ESE visible
12 Apr ? 03:54:44 10° N 03:58:27 31° WNW 04:00:23 21° WSW visible
13 Apr ? 02:29:40 10° NNE 02:33:30 33° E 02:34:32 29° SE visible
13 Apr ? 04:05:32 10° N 04:08:59 25° WNW 04:11:16 16° WSW visible
